{"data":{"norad_id":65113,"epoch":"2026-05-25T04:21:05.107104Z","epoch_age_seconds":53119,"freshness":"FRESH","line1":"1 65113U 25168H   26145.18130911 -.00000079  00000+0  96330-4 0  9991","line2":"2 65113  49.9998  47.9272 0012069  44.1746 316.0088 13.29317586 39633","mean_motion":13.29317586,"eccentricity":0.0012069,"inclination_deg":49.9998,"raan_deg":47.9272,"arg_perigee_deg":44.1746,"mean_anomaly_deg":316.0088,"bstar":9.633e-5,"rev_number":3963,"period_min":108.32625816176,"perigee_km":1140.253425459,"apogee_km":1158.4232454237,"semimajor_km":7527.4753354414,"source":"CELESTRAK","updated_at":"2026-05-25T13:38:05.135534Z"}}